Tacoma Narrows, WA

2:11 PM PDT on June 28, 2017 (GMT -0700)
Tacoma Narrows

Weather History for KTIW - January, 2014

Change the Weather History Date:

Sunday, January 5, 2014

  Actual Average Record
Temperature  
Mean Temperature 38 °F -  
Max Temperature 44 °F 43 °F 53 °F (2015)
Min Temperature 32 °F 36 °F 23 °F (2004)
Degree Days  
Heating Degree Days 27    
Moisture  
Dew Point 33 °F    
Average Humidity 87    
Maximum Humidity 100    
Minimum Humidity 65    
Precipitation  
Precipitation 0.00 in - - ()
Sea Level Pressure  
Sea Level Pressure 30.45 in    
Wind  
Wind Speed 4 mph (North)    
Max Wind Speed 9 mph    
Max Gust Speed -    
Visibility 8 miles    
Events      
Averages and records for this station are not official NWS values.
T = Trace of Precipitation, MM = Missing Value Source: NWS Daily Summary

Daily Weather History Graph

Daily Weather History Graph

Search for Another Location

Airport or City:

Trip Planner

Search our weather history database for the weather conditions in past years. The results will help you decide how hot, cold, wet, or windy it might be!

Date:

Astronomy

Jan. 05, 2014 Rise Set
Actual Time 7:56 AM PST 4:35 PM PST
Civil Twilight 7:21 AM PST 5:10 PM PST
Nautical Twilight 6:42 AM PST 5:49 PM PST
Astronomical Twilight 6:05 AM PST 6:26 PM PST
Moon 10:19 AM PST (1/5) 10:33 PM PST (1/5)
Length of Visible Light 9h 48m
Length of Day
8h 38m
Waxing Crescent, 25% of the Moon is Illuminated
Jan 5
Waxing Crescent
Jan 7
First Quarter
Jan 15
Full
Jan 23
Last Quarter
Jan 30
New

Hourly Weather History & Observations

Time (PST) Temp. Windchill Dew Point Humidity Pressure Visibility Wind Dir Wind Speed Gust Speed Precip Events Conditions
12:53 AM 34.0 °F 31.0 °F 32.0 °F 92% 30.48 in 10.0 mi NW 3.5 mph - N/A   Clear
1:53 AM 36.0 °F 31.1 °F 34.0 °F 93% 30.48 in 10.0 mi North 5.8 mph - N/A   Clear
2:03 AM 35.6 °F 29.9 °F 33.8 °F 93% 30.47 in 10.0 mi North 6.9 mph - N/A   Scattered Clouds
2:13 AM 35.6 °F 31.7 °F 33.8 °F 93% 30.47 in 10.0 mi NNE 4.6 mph - N/A   Mostly Cloudy
2:53 AM 37.0 °F - 34.0 °F 89% 30.50 in 10.0 mi Calm Calm - N/A   Overcast
3:53 AM 35.1 °F - 32.0 °F 89% 30.49 in 8.0 mi Calm Calm - N/A   Mostly Cloudy
4:53 AM 35.1 °F 32.2 °F 32.0 °F 89% 30.48 in 10.0 mi Variable 3.5 mph - N/A   Overcast
5:53 AM 34.0 °F - 32.0 °F 92% 30.48 in 7.0 mi Calm Calm - N/A   Overcast
6:10 AM 33.8 °F 30.8 °F 32.0 °F 93% 30.47 in 4.0 mi NNE 3.5 mph - N/A   Overcast
6:34 AM 33.8 °F - 30.2 °F 87% 30.46 in 5.0 mi Calm Calm - N/A   Scattered Clouds
6:45 AM 33.8 °F 29.6 °F 30.2 °F 87% 30.46 in 2.0 mi North 4.6 mph - N/A   Mostly Cloudy
6:53 AM 33.1 °F 30.0 °F 30.9 °F 92% 30.48 in 1.0 mi NNE 3.5 mph - N/A   Mist
7:28 AM 32.0 °F - 32.0 °F 100% 30.46 in 0.8 mi Calm Calm - N/A   Mist
7:35 AM 33.8 °F - 32.0 °F 93% 30.47 in 2.0 mi Calm Calm - N/A   Overcast
7:53 AM 33.1 °F - 33.1 °F 100% 30.48 in 1.0 mi Calm Calm - N/A   Overcast
8:23 AM 33.8 °F 30.8 °F 32.0 °F 93% 30.48 in 2.0 mi Variable 3.5 mph - N/A   Overcast
8:53 AM 34.0 °F - 33.1 °F 96% 30.50 in 3.0 mi Calm Calm - N/A   Overcast
9:53 AM 36.0 °F - 34.0 °F 93% 30.51 in 8.0 mi Calm Calm - N/A   Mostly Cloudy
10:21 AM 37.4 °F - 33.8 °F 87% 30.50 in 10.0 mi Calm Calm - N/A   Scattered Clouds
10:53 AM 37.0 °F - 34.0 °F 89% 30.51 in 10.0 mi Calm Calm - N/A   Scattered Clouds
11:53 AM 39.9 °F 35.8 °F 34.0 °F 79% 30.48 in 10.0 mi North 5.8 mph - N/A   Partly Cloudy
12:53 PM 42.1 °F 37.7 °F 33.1 °F 70% 30.46 in 10.0 mi North 6.9 mph - N/A   Clear
1:53 PM 43.0 °F 39.5 °F 33.1 °F 68% 30.44 in 10.0 mi North 5.8 mph - N/A   Clear
2:53 PM 44.1 °F 39.0 °F 33.1 °F 65% 30.44 in 10.0 mi North 9.2 mph - N/A   Clear
3:53 PM 43.0 °F 38.8 °F 33.1 °F 68% 30.43 in 10.0 mi North 6.9 mph - N/A   Clear
4:53 PM 42.1 °F 37.7 °F 34.0 °F 73% 30.41 in 10.0 mi North 6.9 mph - N/A   Clear
5:53 PM 39.0 °F 34.0 °F 33.1 °F 79% 30.40 in 10.0 mi North 6.9 mph - N/A   Clear
6:53 PM 37.9 °F 32.1 °F 33.1 °F 83% 30.39 in 10.0 mi North 8.1 mph - N/A   Clear
7:53 PM 37.9 °F 32.1 °F 33.1 °F 83% 30.38 in 10.0 mi North 8.1 mph - N/A   Clear
8:53 PM 37.0 °F 30.4 °F 33.1 °F 86% 30.37 in 10.0 mi North 9.2 mph - N/A   Clear
9:53 PM 37.0 °F 31.6 °F 33.1 °F 86% 30.35 in 10.0 mi North 6.9 mph - N/A   Clear
10:53 PM 37.9 °F 32.7 °F 34.0 °F 86% 30.34 in 10.0 mi NNE 6.9 mph - N/A   Clear
11:53 PM 37.0 °F 32.4 °F 34.0 °F 89% 30.32 in 10.0 mi North 5.8 mph - N/A   Clear